Погода в Москальве

Россия / Сахалинская область     53°34′48″N   142°30′34″E
темп.,
°C
ветер,
м/с
пор.,
м/с
влажн.,
%
обл.,
%
осадки,
мм/ч
давл.,
гПа
погр.,
м
30 ноября, вт
вт3023:00−7зсз6977100 0.3 1016363
02:00−6з81179100 0.4 1017603
05:00−8з8128897 0.6 1018612
08:00−9зюз71082100 0.1 1018270
11:00−9юз5875100 0.1 1019283
14:00−9юз4676100 0.0 1018300
17:00−10ю4682100 0.0 1018181
20:00−10ю479099 0.0 1017201
1 декабря, ср
ср123:00−9ююз2395100 0.1 1017120
02:00−10ююз1197100 0.0 101670
05:00−11ссз1195100 0.0 101556
08:00−9св3690100 0.0 1013137
11:00−5св61088100 0.0 1010425
14:00−4св111794100 0.6 1003814
17:00−3св152294100 3.4 9961025
20:00−2св172495100 3.7 988921
2 декабря, чт
чт223:00−1св172594100 7.8 9801225
02:00−2ссв202893100 4.3 9741157
05:00−2ссв192794100 8.6 9681196
08:00−3с202693100 5.1 9651152
11:00−4ссз232991100 7.3 9661298
14:00−6ссз263391100 2.4 9671352
17:00−6сз243089100 4.8 9751510
20:00−6сз192485100 1.6 9831707
3 декабря, пт
пт323:00−6сз141880100 2.3 9891270
02:00−7з111591100 0.7 994823
05:00−9зюз101478100 1.1 998438
08:00−11зюз8137782 0.0 1002371
11:00−12зюз7117623 0.0 1005320
14:00−11зюз5877100 0.0 1007313
17:00−12юз46817 0.0 1009164
20:00−16юз3387100 0.0 101081
4 декабря, сб
сб423:00−14зюз2286100 0.0 101081
02:00−10с3377100 0.0 1009107
05:00−7ссв71072100 0.0 1008441
08:00−8ссв101382100 0.1 1006738
11:00−8с111483100 0.4 1003975
14:00−8с161890100 1.6 9991303
17:00−7ссз152090100 3.3 9971503
20:00−7ссз162088100 1.4 9971608